Total_Precipitation_Accumulation
0.73 0.75 0.69 0.73 0.70 0.68 0.71 0.72 0.61 0.60 0.60 0.51 0.46 0.48 0.53 0.47 0.56 0.60 0.70 0.84 1.16 1.48 1.50 1.37 1.22 1.07 0.97 0.96 0.93 0.99 1.04 1.03 1.05 1.24 1.26 1.16 1.15 1.07 0.95 1.03 1.15 1.16 1.15
0.62 0.74 0.73 0.78 0.69 0.71 0.79 0.72 0.65 0.68 0.68 0.59 0.50 0.51 0.53 0.50 0.56 0.63 0.72 0.86 1.02 1.39 1.71 1.72 1.59 1.40 1.17 1.08 0.99 1.03 0.99 0.94 0.95 1.11 1.21 1.06 0.99 0.92 0.83 0.90 1.13 1.16 1.12
0.62 0.74 0.78 0.77 0.75 0.78 0.81 0.84 0.83 0.79 0.70 0.62 0.56 0.53 0.53 0.53 0.58 0.63 0.66 0.83 0.86 0.92 1.29 1.70 1.85 1.77 1.51 1.35 1.17 1.03 0.97 0.94 0.90 0.92 1.11 1.02 0.88 0.81 0.78 0.79 0.95 0.96 1.02
0.67 0.87 0.92 0.81 0.86 0.97 1.00 1.02 0.98 0.90 0.80 0.76 0.75 0.68 0.60 0.57 0.60 0.65 0.66 0.72 0.75 0.71 0.76 0.94 1.20 1.43 1.64 1.65 1.48 1.23 1.10 0.97 0.83 0.81 0.90 0.97 0.80 0.75 0.73 0.73 0.75 0.79 0.82
0.89 1.06 1.13 1.04 1.02 1.17 1.14 1.03 1.04 1.05 0.96 0.95 0.93 0.92 0.78 0.68 0.67 0.65 0.74 0.83 0.83 0.81 0.83 0.67 0.74 0.89 1.24 1.53 1.59 1.49 1.29 1.15 0.92 0.81 0.77 0.79 0.74 0.73 0.68 0.65 0.65 0.72 0.72
1.13 1.28 1.38 1.34 1.30 1.41 1.39 1.27 1.36 1.35 1.26 1.29 1.18 1.07 0.98 0.91 0.87 0.85 0.85 0.92 0.98 0.89 0.91 0.80 0.74 0.64 0.78 1.09 1.34 1.42 1.37 1.33 1.11 0.87 0.76 0.70 0.68 0.66 0.64 0.63 0.61 0.65 0.68
1.52 1.64 1.60 1.82 1.89 1.86 1.86 1.80 1.92 1.94 1.67 1.50 1.75 1.73 1.33 1.06 0.94 0.95 1.00 1.03 1.07 1.07 1.05 0.98 0.89 0.73 0.63 0.68 0.84 1.16 1.29 1.37 1.26 1.03 0.88 0.77 0.70 0.69 0.64 0.65 0.63 0.64 0.70
1.87 1.79 1.87 2.08 2.13 2.23 2.32 2.16 2.29 2.35 2.03 1.74 2.11 2.52 2.02 1.61 1.06 0.86 0.95 1.04 1.15 1.19 1.14 0.99 0.95 0.86 0.75 0.76 0.61 0.75 1.02 1.28 1.31 1.21 1.06 0.92 0.81 0.76 0.66 0.65 0.67 0.71 0.68
2.26 2.15 2.11 2.23 2.25 2.32 2.51 2.55 2.50 2.57 2.48 2.17 2.13 2.54 2.39 2.06 1.64 1.08 0.95 1.04 1.18 1.27 1.29 1.25 1.10 1.01 0.90 0.95 0.92 0.69 0.67 0.89 1.22 1.28 1.21 1.07 0.94 0.86 0.73 0.68 0.70 0.70 0.64
2.42 2.38 2.33 2.39 2.39 2.35 2.47 2.56 2.54 2.74 2.89 2.61 2.35 2.12 2.03 2.03 2.02 1.57 1.15 1.09 1.26 1.33 1.35 1.27 1.24 1.24 1.21 1.14 1.10 0.82 0.65 0.66 0.97 1.31 1.38 1.33 1.18 1.00 0.86 0.79 0.78 0.73 0.67
2.14 2.12 2.24 2.39 2.41 2.38 2.39 2.58 2.69 2.86 2.84 2.75 2.59 2.46 2.26 2.07 1.73 1.79 1.66 1.40 1.39 1.29 1.36 1.45 1.45 1.46 1.43 1.46 1.49 1.04 0.78 0.63 0.74 1.12 1.45 1.51 1.45 1.28 1.08 0.94 0.85 0.84 0.81
1.95 1.87 1.98 2.09 2.18 2.23 2.21 2.27 2.43 2.57 2.73 2.88 2.80 2.61 2.48 2.35 2.14 2.01 1.74 1.58 1.65 1.48 1.35 1.36 1.41 1.46 1.59 1.65 1.53 1.37 0.99 0.76 0.67 0.81 1.06 1.35 1.50 1.56 1.39 1.29 1.13 1.00 1.02
1.86 1.81 1.79 1.87 1.95 1.99 2.09 2.26 2.25 2.28 2.46 2.65 2.64 2.56 2.54 2.32 2.20 2.24 2.07 1.73 1.64 1.53 1.42 1.35 1.28 1.33 1.42 1.54 1.61 1.52 1.10 0.96 0.76 0.69 0.72 0.82 1.07 1.31 1.44 1.52 1.57 1.45 1.45
1.48 1.47 1.53 1.63 1.78 1.88 1.98 2.12 2.16 2.12 2.20 2.26 2.28 2.39 2.45 2.34 2.14 2.08 2.10 2.16 1.91 1.66 1.47 1.33 1.25 1.25 1.31 1.37 1.52 1.55 1.13 0.96 0.84 0.74 0.67 0.63 0.73 0.89 1.07 1.23 1.45 1.61 1.79
1.09 1.14 1.21 1.35 1.55 1.69 1.75 1.86 2.00 1.99 2.05 2.05 2.11 2.17 2.18 2.23 2.08 1.93 1.89 1.97 2.07 1.85 1.69 1.51 1.30 1.13 1.21 1.22 1.32 1.15 1.08 1.01 0.87 0.78 0.72 0.62 0.60 0.67 0.77 0.88 1.00 1.07 1.14
0.98 1.08 1.09 1.17 1.30 1.40 1.50 1.68 1.82 1.90 1.93 1.90 1.88 1.96 2.00 2.06 2.06 2.03 1.99 1.97 1.93 1.88 1.77 1.58 1.31 1.05 1.12 1.19 1.33 1.15 1.18 1.26 1.04 0.87 0.75 0.67 0.63 0.62 0.63 0.67 0.66 0.65 0.67
0.95 1.01 1.07 1.11 1.15 1.25 1.30 1.42 1.57 1.71 1.73 1.74 1.65 1.69 1.80 1.86 2.03 2.06 2.02 1.97 1.94 1.86 1.71 1.62 1.38 1.16 1.15 1.23 1.29 1.21 1.25 1.26 1.08 0.98 0.87 0.79 0.71 0.72 0.70 0.70 0.68 0.59 0.54
0.79 0.90 1.04 1.04 1.05 1.10 1.19 1.30 1.40 1.46 1.55 1.52 1.43 1.45 1.57 1.64 1.77 1.90 2.00 1.91 1.90 1.85 1.83 1.77 1.55 1.33 1.24 1.26 1.31 1.28 1.19 1.19 1.18 1.14 1.01 0.92 0.85 0.80 0.80 0.73 0.72 0.67 0.62
0.74 0.88 1.02 1.14 1.07 0.97 1.07 1.18 1.23 1.25 1.26 1.22 1.21 1.24 1.29 1.37 1.50 1.62 1.73 1.82 1.83 1.77 1.86 1.84 1.63 1.39 1.27 1.25 1.29 1.27 1.24 1.31 1.21 1.20 1.15 1.02 0.96 0.88 0.89 0.86 0.79 0.74 0.65
0.61 0.68 0.83 0.94 0.99 0.95 0.92 0.93 0.97 1.13 1.13 1.05 0.97 0.96 0.98 1.02 1.14 1.28 1.39 1.54 1.70 1.82 1.90 1.92 1.76 1.48 1.30 1.28 1.32 1.37 1.38 1.33 1.34 1.23 1.22 1.18 1.16 1.09 1.00 0.99 0.87 0.77 0.71
0.48 0.54 0.70 0.88 0.94 0.94 0.98 0.97 0.90 0.93 0.99 1.01 0.95 0.87 0.80 0.79 0.87 0.97 1.08 1.34 1.54 1.69 1.83 1.89 1.81 1.64 1.46 1.38 1.32 1.33 1.42 1.52 1.53 1.38 1.32 1.23 1.19 1.05 0.94 0.94 0.89 0.78 0.70
0.42 0.45 0.53 0.69 0.86 0.84 0.99 1.04 0.98 0.90 0.90 0.90 0.90 0.91 0.90 0.85 0.74 0.69 0.76 0.92 1.15 1.36 1.54 1.66 1.69 1.58 1.43 1.40 1.44 1.44 1.43 1.50 1.56 1.42 1.39 1.45 1.39 1.24 1.09 0.96 0.99 0.88 0.76
0.38 0.41 0.47 0.59 0.74 0.89 0.92 0.83 0.92 0.93 0.90 0.90 0.87 0.87 0.91 0.90 0.94 0.84 0.77 0.75 0.78 0.96 1.20 1.41 1.44 1.41 1.48 1.41 1.38 1.34 1.32 1.31 1.32 1.35 1.38 1.43 1.43 1.31 1.14 1.07 1.14 1.06 0.96
0.37 0.39 0.43 0.49 0.57 0.76 0.81 0.72 0.90 0.94 0.95 0.94 0.92 0.94 0.98 1.02 0.99 1.09 1.06 0.97 0.90 0.89 0.98 0.93 1.03 1.30 1.41 1.43 1.43 1.44 1.47 1.39 1.33 1.32 1.28 1.33 1.28 1.24 1.12 1.05 1.10 1.04 0.95
0.39 0.38 0.39 0.41 0.44 0.53 0.62 0.60 0.74 0.88 0.98 0.97 0.88 0.90 0.95 0.99 1.18 1.21 1.12 1.11 1.04 0.98 1.11 1.12 1.13 1.18 1.25 1.26 1.28 1.37 1.44 1.39 1.34 1.28 1.21 1.13 1.10 1.19 1.24 1.14 1.10 1.15 1.08
0.46 0.42 0.39 0.38 0.40 0.43 0.56 0.45 0.57 0.74 0.91 1.00 0.94 0.91 1.06 1.03 1.05 1.00 0.96 1.15 1.13 1.03 0.94 0.91 0.92 0.97 0.98 1.04 1.11 1.15 1.28 1.30 1.24 1.25 1.14 1.10 1.07 1.15 1.22 1.15 1.03 1.00 1.04